Time,TemperatureF,DewpointF,PressureIn,WindDirection,WindDirectionDegrees,WindSpeedMPH,WindSpeedGustMPH,Humidity,HourlyPrecipIn,Conditions,Clouds,dailyrainin,SoftwareType,DateUTC
2013-03-02 00:00:00,37.4,21.9,29.57,North,-999,-999.0,-999.0,53,-99.99,,,-99.99,meteohub,2013-03-02 05:00:00,
2013-03-02 00:01:00,37.4,21.9,29.57,North,-999,-999.0,-999.0,53,-99.99,,,-99.99,meteohub,2013-03-02 05:01:00,
2013-03-02 00:02:00,37.4,21.9,29.57,North,-999,-999.0,-999.0,53,-99.99,,,-99.99,meteohub,2013-03-02 05:02:00,
2013-03-02 00:08:00,37.0,21.6,29.57,North,-999,-999.0,-999.0,53,-99.99,,,-99.99,meteohub,2013-03-02 05:08:00,
2013-03-02 00:13:00,36.7,21.6,29.57,North,-999,-999.0,-999.0,54,-99.99,,,-99.99,meteohub,2013-03-02 05:13:00,
2013-03-02 00:18:00,36.3,21.4,29.57,North,-999,-999.0,-999.0,54,-99.99,,,-99.99,meteohub,2013-03-02 05:18:00,
2013-03-02 00:23:00,36.3,21.7,29.57,North,-999,-999.0,-999.0,55,-99.99,,,-99.99,meteohub,2013-03-02 05:23:00,
2013-03-02 00:28:00,35.8,21.7,29.57,North,-999,-999.0,-999.0,56,-99.99,,,-99.99,meteohub,2013-03-02 05:28:00,
2013-03-02 00:33:00,35.6,21.6,29.57,North,-999,-999.0,-999.0,56,-99.99,,,-99.99,meteohub,2013-03-02 05:33:00,
2013-03-02 00:38:00,35.4,21.7,29.57,North,-999,-999.0,-999.0,57,-99.99,,,-99.99,meteohub,2013-03-02 05:38:00,
2013-03-02 00:43:00,35.1,21.4,29.57,North,-999,-999.0,-999.0,57,-99.99,,,-99.99,meteohub,2013-03-02 05:43:00,
2013-03-02 00:48:00,34.9,21.6,29.57,North,-999,-999.0,-999.0,58,-99.99,,,-99.99,meteohub,2013-03-02 05:48:00,
2013-03-02 00:54:00,34.5,21.4,29.57,North,-999,-999.0,-999.0,58,-99.99,,,-99.99,meteohub,2013-03-02 05:54:00,
2013-03-02 00:59:00,34.3,21.2,29.57,North,-999,-999.0,-999.0,58,-99.99,,,-99.99,meteohub,2013-03-02 05:59:00,
2013-03-02 01:04:00,34.0,21.2,29.57,North,-999,-999.0,-999.0,59,-99.99,,,-99.99,meteohub,2013-03-02 06:04:00,
2013-03-02 01:09:00,33.8,21.0,29.57,North,-999,-999.0,-999.0,59,-99.99,,,-99.99,meteohub,2013-03-02 06:09:00,
2013-03-02 01:14:00,33.6,21.2,29.57,North,-999,-999.0,-999.0,60,-99.99,,,-99.99,meteohub,2013-03-02 06:14:00,
2013-03-02 01:19:00,33.3,21.4,29.57,North,-999,-999.0,-999.0,61,-99.99,,,-99.99,meteohub,2013-03-02 06:19:00,
2013-03-02 01:24:00,33.3,21.4,29.57,North,-999,-999.0,-999.0,61,-99.99,,,-99.99,meteohub,2013-03-02 06:24:00,
2013-03-02 01:29:00,32.7,21.2,29.57,North,-999,-999.0,-999.0,62,-99.99,,,-99.99,meteohub,2013-03-02 06:29:00,
2013-03-02 01:34:00,32.7,21.6,29.57,North,-999,-999.0,-999.0,63,-99.99,,,-99.99,meteohub,2013-03-02 06:34:00,
2013-03-02 01:40:00,32.5,21.4,29.57,North,-999,-999.0,-999.0,63,-99.99,,,-99.99,meteohub,2013-03-02 06:40:00,
2013-03-02 01:45:00,32.2,21.0,29.57,North,-999,-999.0,-999.0,63,-99.99,,,-99.99,meteohub,2013-03-02 06:45:00,
2013-03-02 01:50:00,32.0,21.2,29.57,North,-999,-999.0,-999.0,64,-99.99,,,-99.99,meteohub,2013-03-02 06:50:00,
2013-03-02 01:55:00,32.0,21.6,29.57,North,-999,-999.0,-999.0,65,-99.99,,,-99.99,meteohub,2013-03-02 06:55:00,
2013-03-02 02:00:00,32.0,21.6,29.57,North,-999,-999.0,-999.0,65,-99.99,,,-99.99,meteohub,2013-03-02 07:00:00,
2013-03-02 02:05:00,31.6,21.2,29.57,North,-999,-999.0,-999.0,65,-99.99,,,-99.99,meteohub,2013-03-02 07:05:00,
2013-03-02 02:10:00,31.5,21.4,29.57,North,-999,-999.0,-999.0,66,-99.99,,,-99.99,meteohub,2013-03-02 07:10:00,
2013-03-02 02:15:00,31.5,21.4,29.57,North,-999,-999.0,-999.0,66,-99.99,,,-99.99,meteohub,2013-03-02 07:15:00,
2013-03-02 02:20:00,31.3,21.2,29.57,North,-999,-999.0,-999.0,66,-99.99,,,-99.99,meteohub,2013-03-02 07:20:00,
2013-03-02 02:26:00,31.1,21.0,29.57,North,-999,-999.0,-999.0,66,-99.99,,,-99.99,meteohub,2013-03-02 07:26:00,
2013-03-02 02:31:00,31.1,21.0,29.57,North,-999,-999.0,-999.0,66,-99.99,,,-99.99,meteohub,2013-03-02 07:31:00,
2013-03-02 02:36:00,30.7,20.7,29.54,North,-999,-999.0,-999.0,66,-99.99,,,-99.99,meteohub,2013-03-02 07:36:00,
2013-03-02 02:41:00,30.7,21.4,29.54,North,-999,-999.0,-999.0,68,-99.99,,,-99.99,meteohub,2013-03-02 07:41:00,
2013-03-02 02:46:00,30.6,21.2,29.54,North,-999,-999.0,-999.0,68,-99.99,,,-99.99,meteohub,2013-03-02 07:46:00,
2013-03-02 02:51:00,30.6,21.6,29.54,North,-999,-999.0,-999.0,69,-99.99,,,-99.99,meteohub,2013-03-02 07:51:00,
2013-03-02 02:56:00,30.4,21.4,29.54,North,-999,-999.0,-999.0,69,-99.99,,,-99.99,meteohub,2013-03-02 07:56:00,
2013-03-02 03:01:00,30.2,21.6,29.54,North,-999,-999.0,-999.0,70,-99.99,,,-99.99,meteohub,2013-03-02 08:01:00,
2013-03-02 03:07:00,30.2,21.2,29.54,North,-999,-999.0,-999.0,69,-99.99,,,-99.99,meteohub,2013-03-02 08:07:00,
2013-03-02 03:12:00,30.0,21.4,29.54,North,-999,-999.0,-999.0,70,-99.99,,,-99.99,meteohub,2013-03-02 08:12:00,
2013-03-02 03:17:00,29.8,21.6,29.54,North,-999,-999.0,-999.0,71,-99.99,,,-99.99,meteohub,2013-03-02 08:17:00,
2013-03-02 03:22:00,29.7,21.0,29.54,North,-999,-999.0,-999.0,70,-99.99,,,-99.99,meteohub,2013-03-02 08:22:00,
2013-03-02 03:27:00,29.7,21.4,29.54,North,-999,-999.0,-999.0,71,-99.99,,,-99.99,meteohub,2013-03-02 08:27:00,
2013-03-02 03:32:00,29.7,21.7,29.54,North,-999,-999.0,-999.0,72,-99.99,,,-99.99,meteohub,2013-03-02 08:32:00,
2013-03-02 03:37:00,29.5,21.6,29.54,North,-999,-999.0,-999.0,72,-99.99,,,-99.99,meteohub,2013-03-02 08:37:00,
2013-03-02 03:42:00,29.5,21.6,29.54,North,-999,-999.0,-999.0,72,-99.99,,,-99.99,meteohub,2013-03-02 08:42:00,
2013-03-02 03:47:00,29.5,21.6,29.54,North,-999,-999.0,-999.0,72,-99.99,,,-99.99,meteohub,2013-03-02 08:47:00,
2013-03-02 03:52:00,29.5,21.2,29.54,North,-999,-999.0,-999.0,71,-99.99,,,-99.99,meteohub,2013-03-02 08:52:00,
2013-03-02 03:57:00,29.1,21.6,29.54,North,-999,-999.0,-999.0,73,-99.99,,,-99.99,meteohub,2013-03-02 08:57:00,
2013-03-02 04:02:00,29.1,21.6,29.54,North,-999,-999.0,-999.0,73,-99.99,,,-99.99,meteohub,2013-03-02 09:02:00,
2013-03-02 04:07:00,29.1,21.6,29.54,North,-999,-999.0,-999.0,73,-99.99,,,-99.99,meteohub,2013-03-02 09:07:00,
2013-03-02 04:12:00,28.9,21.4,29.54,North,-999,-999.0,-999.0,73,-99.99,,,-99.99,meteohub,2013-03-02 09:12:00,
2013-03-02 04:17:00,28.9,21.4,29.54,North,-999,-999.0,-999.0,73,-99.99,,,-99.99,meteohub,2013-03-02 09:17:00,
2013-03-02 04:22:00,28.9,21.4,29.54,North,-999,-999.0,-999.0,73,-99.99,,,-99.99,meteohub,2013-03-02 09:22:00,
2013-03-02 04:27:00,28.9,21.4,29.54,North,-999,-999.0,-999.0,73,-99.99,,,-99.99,meteohub,2013-03-02 09:27:00,
2013-03-02 04:32:00,28.8,21.2,29.54,North,-999,-999.0,-999.0,73,-99.99,,,-99.99,meteohub,2013-03-02 09:32:00,
2013-03-02 04:38:00,28.6,21.0,29.54,North,-999,-999.0,-999.0,73,-99.99,,,-99.99,meteohub,2013-03-02 09:38:00,
2013-03-02 04:43:00,28.6,21.4,29.54,North,-999,-999.0,-999.0,74,-99.99,,,-99.99,meteohub,2013-03-02 09:43:00,
2013-03-02 04:48:00,28.6,21.4,29.54,North,-999,-999.0,-999.0,74,-99.99,,,-99.99,meteohub,2013-03-02 09:48:00,
2013-03-02 04:53:00,28.8,21.6,29.54,North,-999,-999.0,-999.0,74,-99.99,,,-99.99,meteohub,2013-03-02 09:53:00,
2013-03-02 04:58:00,28.6,21.4,29.54,North,-999,-999.0,-999.0,74,-99.99,,,-99.99,meteohub,2013-03-02 09:58:00,
2013-03-02 05:03:00,28.6,21.4,29.54,North,-999,-999.0,-999.0,74,-99.99,,,-99.99,meteohub,2013-03-02 10:03:00,
2013-03-02 05:10:00,28.6,21.7,29.51,North,-999,-999.0,-999.0,75,-99.99,,,-99.99,meteohub,2013-03-02 10:10:00,
2013-03-02 05:15:00,28.6,21.4,29.51,North,-999,-999.0,-999.0,74,-99.99,,,-99.99,meteohub,2013-03-02 10:15:00,
2013-03-02 05:20:00,28.4,21.6,29.54,North,-999,-999.0,-999.0,75,-99.99,,,-99.99,meteohub,2013-03-02 10:20:00,
2013-03-02 05:25:00,28.2,21.4,29.54,North,-999,-999.0,-999.0,75,-99.99,,,-99.99,meteohub,2013-03-02 10:25:00,
2013-03-02 05:30:00,28.2,21.6,29.54,North,-999,-999.0,-999.0,76,-99.99,,,-99.99,meteohub,2013-03-02 10:30:00,
2013-03-02 05:36:00,28.0,21.2,29.51,North,-999,-999.0,-999.0,75,-99.99,,,-99.99,meteohub,2013-03-02 10:36:00,
2013-03-02 05:42:00,27.9,21.4,29.51,North,-999,-999.0,-999.0,76,-99.99,,,-99.99,meteohub,2013-03-02 10:42:00,
2013-03-02 05:47:00,27.9,21.4,29.51,North,-999,-999.0,-999.0,76,-99.99,,,-99.99,meteohub,2013-03-02 10:47:00,
2013-03-02 05:52:00,27.9,21.6,29.51,North,-999,-999.0,-999.0,77,-99.99,,,-99.99,meteohub,2013-03-02 10:52:00,
2013-03-02 05:57:00,27.9,21.6,29.51,North,-999,-999.0,-999.0,77,-99.99,,,-99.99,meteohub,2013-03-02 10:57:00,
2013-03-02 06:02:00,27.9,21.4,29.51,North,-999,-999.0,-999.0,76,-99.99,,,-99.99,meteohub,2013-03-02 11:02:00,
2013-03-02 06:07:00,27.9,21.6,29.54,North,-999,-999.0,-999.0,77,-99.99,,,-99.99,meteohub,2013-03-02 11:07:00,
2013-03-02 06:12:00,27.9,21.6,29.54,North,-999,-999.0,-999.0,77,-99.99,,,-99.99,meteohub,2013-03-02 11:12:00,
2013-03-02 06:18:00,27.9,21.6,29.54,North,-999,-999.0,-999.0,77,-99.99,,,-99.99,meteohub,2013-03-02 11:18:00,
2013-03-02 06:23:00,27.7,21.2,29.54,North,-999,-999.0,-999.0,76,-99.99,,,-99.99,meteohub,2013-03-02 11:23:00,
2013-03-02 06:28:00,27.7,21.4,29.54,North,-999,-999.0,-999.0,77,-99.99,,,-99.99,meteohub,2013-03-02 11:28:00,
2013-03-02 06:33:00,27.9,21.6,29.54,North,-999,-999.0,-999.0,77,-99.99,,,-99.99,meteohub,2013-03-02 11:33:00,
2013-03-02 06:38:00,27.9,21.9,29.54,North,-999,-999.0,-999.0,78,-99.99,,,-99.99,meteohub,2013-03-02 11:38:00,
2013-03-02 06:43:00,27.9,21.9,29.54,North,-999,-999.0,-999.0,78,-99.99,,,-99.99,meteohub,2013-03-02 11:43:00,
2013-03-02 06:48:00,27.9,21.9,29.54,North,-999,-999.0,-999.0,78,-99.99,,,-99.99,meteohub,2013-03-02 11:48:00,
2013-03-02 06:53:00,27.9,21.9,29.54,North,-999,-999.0,-999.0,78,-99.99,,,-99.99,meteohub,2013-03-02 11:53:00,
2013-03-02 06:58:00,27.9,21.9,29.54,North,-999,-999.0,-999.0,78,-99.99,,,-99.99,meteohub,2013-03-02 11:58:00,
2013-03-02 07:03:00,27.9,21.9,29.54,North,-999,-999.0,-999.0,78,-99.99,,,-99.99,meteohub,2013-03-02 12:03:00,
2013-03-02 07:09:00,28.2,22.3,29.57,North,-999,-999.0,-999.0,78,-99.99,,,-99.99,meteohub,2013-03-02 12:09:00,
2013-03-02 07:14:00,28.4,22.5,29.57,North,-999,-999.0,-999.0,78,-99.99,,,-99.99,meteohub,2013-03-02 12:14:00,
2013-03-02 07:19:00,28.6,23.0,29.57,North,-999,-999.0,-999.0,79,-99.99,,,-99.99,meteohub,2013-03-02 12:19:00,
2013-03-02 07:24:00,28.8,23.0,29.57,North,-999,-999.0,-999.0,79,-99.99,,,-99.99,meteohub,2013-03-02 12:24:00,
2013-03-02 07:29:00,28.9,23.2,29.57,North,-999,-999.0,-999.0,79,-99.99,,,-99.99,meteohub,2013-03-02 12:29:00,
2013-03-02 07:34:00,29.3,23.5,29.60,North,-999,-999.0,-999.0,79,-99.99,,,-99.99,meteohub,2013-03-02 12:34:00,
2013-03-02 07:39:00,29.5,23.7,29.60,North,-999,-999.0,-999.0,79,-99.99,,,-99.99,meteohub,2013-03-02 12:39:00,
2013-03-02 07:45:00,30.0,24.3,29.60,North,-999,-999.0,-999.0,79,-99.99,,,-99.99,meteohub,2013-03-02 12:45:00,
2013-03-02 07:50:00,30.2,24.4,29.60,North,-999,-999.0,-999.0,79,-99.99,,,-99.99,meteohub,2013-03-02 12:50:00,
2013-03-02 07:55:00,30.7,25.0,29.60,North,-999,-999.0,-999.0,79,-99.99,,,-99.99,meteohub,2013-03-02 12:55:00,
2013-03-02 08:00:00,31.1,25.7,29.60,North,-999,-999.0,-999.0,80,-99.99,,,-99.99,meteohub,2013-03-02 13:00:00,
2013-03-02 08:05:00,31.6,25.9,29.60,North,-999,-999.0,-999.0,79,-99.99,,,-99.99,meteohub,2013-03-02 13:05:00,
2013-03-02 08:10:00,32.0,26.2,29.60,North,-999,-999.0,-999.0,79,-99.99,,,-99.99,meteohub,2013-03-02 13:10:00,
2013-03-02 08:15:00,32.5,27.1,29.60,North,-999,-999.0,-999.0,80,-99.99,,,-99.99,meteohub,2013-03-02 13:15:00,
2013-03-02 08:20:00,32.9,27.1,29.60,North,-999,-999.0,-999.0,79,-99.99,,,-99.99,meteohub,2013-03-02 13:20:00,
2013-03-02 08:25:00,33.4,27.7,29.60,North,-999,-999.0,-999.0,79,-99.99,,,-99.99,meteohub,2013-03-02 13:25:00,
2013-03-02 08:31:00,33.8,28.0,29.60,North,-999,-999.0,-999.0,79,-99.99,,,-99.99,meteohub,2013-03-02 13:31:00,
2013-03-02 08:36:00,34.3,28.6,29.60,North,-999,-999.0,-999.0,79,-99.99,,,-99.99,meteohub,2013-03-02 13:36:00,
2013-03-02 08:41:00,34.9,28.8,29.60,North,-999,-999.0,-999.0,78,-99.99,,,-99.99,meteohub,2013-03-02 13:41:00,
2013-03-02 08:46:00,35.4,29.3,29.60,North,-999,-999.0,-999.0,78,-99.99,,,-99.99,meteohub,2013-03-02 13:46:00,
2013-03-02 08:51:00,35.6,29.1,29.60,North,-999,-999.0,-999.0,77,-99.99,,,-99.99,meteohub,2013-03-02 13:51:00,
2013-03-02 08:56:00,36.3,29.8,29.60,North,-999,-999.0,-999.0,77,-99.99,,,-99.99,meteohub,2013-03-02 13:56:00,
2013-03-02 09:01:00,36.7,29.8,29.60,North,-999,-999.0,-999.0,76,-99.99,,,-99.99,meteohub,2013-03-02 14:01:00,
2013-03-02 09:06:00,37.0,29.8,29.60,North,-999,-999.0,-999.0,75,-99.99,,,-99.99,meteohub,2013-03-02 14:06:00,
2013-03-02 09:11:00,37.8,29.8,29.60,North,-999,-999.0,-999.0,73,-99.99,,,-99.99,meteohub,2013-03-02 14:11:00,
2013-03-02 09:16:00,38.3,30.0,29.60,North,-999,-999.0,-999.0,72,-99.99,,,-99.99,meteohub,2013-03-02 14:16:00,
2013-03-02 09:22:00,39.0,30.4,29.60,North,-999,-999.0,-999.0,71,-99.99,,,-99.99,meteohub,2013-03-02 14:22:00,
2013-03-02 09:27:00,39.4,30.0,29.60,North,-999,-999.0,-999.0,69,-99.99,,,-99.99,meteohub,2013-03-02 14:27:00,
2013-03-02 09:32:00,40.1,29.7,29.60,North,-999,-999.0,-999.0,66,-99.99,,,-99.99,meteohub,2013-03-02 14:32:00,
2013-03-02 09:37:00,40.8,30.0,29.60,North,-999,-999.0,-999.0,65,-99.99,,,-99.99,meteohub,2013-03-02 14:37:00,
2013-03-02 09:42:00,41.7,30.6,29.60,North,-999,-999.0,-999.0,64,-99.99,,,-99.99,meteohub,2013-03-02 14:42:00,
2013-03-02 09:47:00,42.3,29.8,29.60,North,-999,-999.0,-999.0,61,-99.99,,,-99.99,meteohub,2013-03-02 14:47:00,
2013-03-02 09:52:00,43.0,28.0,29.57,North,-999,-999.0,-999.0,55,-99.99,,,-99.99,meteohub,2013-03-02 14:52:00,
2013-03-02 09:57:00,43.2,27.7,29.57,North,-999,-999.0,-999.0,54,-99.99,,,-99.99,meteohub,2013-03-02 14:57:00,
2013-03-02 10:02:00,43.3,27.9,29.57,North,-999,-999.0,-999.0,54,-99.99,,,-99.99,meteohub,2013-03-02 15:02:00,
2013-03-02 10:07:00,43.2,26.2,29.57,North,-999,-999.0,-999.0,51,-99.99,,,-99.99,meteohub,2013-03-02 15:07:00,
2013-03-02 10:12:00,44.2,27.3,29.57,North,-999,-999.0,-999.0,51,-99.99,,,-99.99,meteohub,2013-03-02 15:12:00,
2013-03-02 10:17:00,44.2,26.4,29.57,North,-999,-999.0,-999.0,49,-99.99,,,-99.99,meteohub,2013-03-02 15:17:00,
2013-03-02 10:22:00,44.6,25.7,29.57,North,-999,-999.0,-999.0,47,-99.99,,,-99.99,meteohub,2013-03-02 15:22:00,
2013-03-02 10:27:00,44.6,25.2,29.57,North,-999,-999.0,-999.0,46,-99.99,,,-99.99,meteohub,2013-03-02 15:27:00,
2013-03-02 10:32:00,45.1,25.2,29.57,North,-999,-999.0,-999.0,45,-99.99,,,-99.99,meteohub,2013-03-02 15:32:00,
2013-03-02 10:37:00,45.1,25.2,29.57,North,-999,-999.0,-999.0,45,-99.99,,,-99.99,meteohub,2013-03-02 15:37:00,
2013-03-02 10:42:00,46.0,25.3,29.57,North,-999,-999.0,-999.0,44,-99.99,,,-99.99,meteohub,2013-03-02 15:42:00,
2013-03-02 10:47:00,45.7,23.4,29.57,North,-999,-999.0,-999.0,41,-99.99,,,-99.99,meteohub,2013-03-02 15:47:00,
2013-03-02 10:52:00,45.9,23.5,29.54,North,-999,-999.0,-999.0,41,-99.99,,,-99.99,meteohub,2013-03-02 15:52:00,
2013-03-02 10:58:00,46.2,24.4,29.54,North,-999,-999.0,-999.0,42,-99.99,,,-99.99,meteohub,2013-03-02 15:58:00,
2013-03-02 11:03:00,46.9,25.7,29.54,North,-999,-999.0,-999.0,43,-99.99,,,-99.99,meteohub,2013-03-02 16:03:00,
2013-03-02 11:08:00,47.3,26.1,29.54,North,-999,-999.0,-999.0,43,-99.99,,,-99.99,meteohub,2013-03-02 16:08:00,
2013-03-02 11:13:00,48.0,25.5,29.54,North,-999,-999.0,-999.0,41,-99.99,,,-99.99,meteohub,2013-03-02 16:13:00,
2013-03-02 11:18:00,48.0,24.3,29.54,North,-999,-999.0,-999.0,39,-99.99,,,-99.99,meteohub,2013-03-02 16:18:00,
2013-03-02 11:23:00,49.1,25.9,29.54,North,-999,-999.0,-999.0,40,-99.99,,,-99.99,meteohub,2013-03-02 16:23:00,
2013-03-02 11:28:00,48.2,23.9,29.54,North,-999,-999.0,-999.0,38,-99.99,,,-99.99,meteohub,2013-03-02 16:28:00,
2013-03-02 11:33:00,48.7,24.3,29.54,North,-999,-999.0,-999.0,38,-99.99,,,-99.99,meteohub,2013-03-02 16:33:00,
2013-03-02 11:38:00,48.2,24.4,29.54,North,-999,-999.0,-999.0,39,-99.99,,,-99.99,meteohub,2013-03-02 16:38:00,
2013-03-02 11:44:00,50.0,26.1,29.54,North,-999,-999.0,-999.0,39,-99.99,,,-99.99,meteohub,2013-03-02 16:44:00,
2013-03-02 11:49:00,50.4,25.7,29.54,North,-999,-999.0,-999.0,38,-99.99,,,-99.99,meteohub,2013-03-02 16:49:00,
2013-03-02 11:54:00,48.7,24.3,29.54,North,-999,-999.0,-999.0,38,-99.99,,,-99.99,meteohub,2013-03-02 16:54:00,
2013-03-02 11:59:00,49.5,25.0,29.54,North,-999,-999.0,-999.0,38,-99.99,,,-99.99,meteohub,2013-03-02 16:59:00,
2013-03-02 12:04:00,49.3,24.8,29.54,North,-999,-999.0,-999.0,38,-99.99,,,-99.99,meteohub,2013-03-02 17:04:00,
2013-03-02 12:09:00,48.4,24.1,29.54,North,-999,-999.0,-999.0,38,-99.99,,,-99.99,meteohub,2013-03-02 17:09:00,
2013-03-02 12:14:00,49.8,25.3,29.54,North,-999,-999.0,-999.0,38,-99.99,,,-99.99,meteohub,2013-03-02 17:14:00,
2013-03-02 12:19:00,50.4,25.2,29.51,North,-999,-999.0,-999.0,37,-99.99,,,-99.99,meteohub,2013-03-02 17:19:00,
2013-03-02 12:24:00,51.8,26.4,29.51,North,-999,-999.0,-999.0,37,-99.99,,,-99.99,meteohub,2013-03-02 17:24:00,
2013-03-02 12:30:00,51.3,25.9,29.51,North,-999,-999.0,-999.0,37,-99.99,,,-99.99,meteohub,2013-03-02 17:30:00,
2013-03-02 12:35:00,51.4,26.8,29.51,North,-999,-999.0,-999.0,38,-99.99,,,-99.99,meteohub,2013-03-02 17:35:00,
2013-03-02 12:40:00,50.2,25.0,29.51,North,-999,-999.0,-999.0,37,-99.99,,,-99.99,meteohub,2013-03-02 17:40:00,
2013-03-02 12:45:00,49.1,24.1,29.51,North,-999,-999.0,-999.0,37,-99.99,,,-99.99,meteohub,2013-03-02 17:45:00,
2013-03-02 12:50:00,49.8,25.3,29.51,North,-999,-999.0,-999.0,38,-99.99,,,-99.99,meteohub,2013-03-02 17:50:00,
2013-03-02 12:55:00,48.7,23.7,29.51,North,-999,-999.0,-999.0,37,-99.99,,,-99.99,meteohub,2013-03-02 17:55:00,
2013-03-02 13:00:00,49.6,25.2,29.51,North,-999,-999.0,-999.0,38,-99.99,,,-99.99,meteohub,2013-03-02 18:00:00,
2013-03-02 13:05:00,49.3,24.1,29.51,North,-999,-999.0,-999.0,37,-99.99,,,-99.99,meteohub,2013-03-02 18:05:00,
2013-03-02 13:11:00,49.3,24.1,29.51,North,-999,-999.0,-999.0,37,-99.99,,,-99.99,meteohub,2013-03-02 18:11:00,
2013-03-02 13:16:00,49.6,25.2,29.51,North,-999,-999.0,-999.0,38,-99.99,,,-99.99,meteohub,2013-03-02 18:16:00,
2013-03-02 13:21:00,50.2,25.0,29.48,North,-999,-999.0,-999.0,37,-99.99,,,-99.99,meteohub,2013-03-02 18:21:00,
2013-03-02 13:26:00,51.3,25.9,29.48,North,-999,-999.0,-999.0,37,-99.99,,,-99.99,meteohub,2013-03-02 18:26:00,
2013-03-02 13:31:00,50.0,24.8,29.48,North,-999,-999.0,-999.0,37,-99.99,,,-99.99,meteohub,2013-03-02 18:31:00,
2013-03-02 13:36:00,49.8,25.3,29.48,North,-999,-999.0,-999.0,38,-99.99,,,-99.99,meteohub,2013-03-02 18:36:00,
2013-03-02 13:41:00,48.7,23.7,29.48,North,-999,-999.0,-999.0,37,-99.99,,,-99.99,meteohub,2013-03-02 18:41:00,
2013-03-02 13:47:00,48.7,23.7,29.48,North,-999,-999.0,-999.0,37,-99.99,,,-99.99,meteohub,2013-03-02 18:47:00,
2013-03-02 13:52:00,49.3,24.1,29.48,North,-999,-999.0,-999.0,37,-99.99,,,-99.99,meteohub,2013-03-02 18:52:00,
2013-03-02 13:57:00,50.0,24.8,29.48,North,-999,-999.0,-999.0,37,-99.99,,,-99.99,meteohub,2013-03-02 18:57:00,
2013-03-02 14:02:00,50.9,25.5,29.48,North,-999,-999.0,-999.0,37,-99.99,,,-99.99,meteohub,2013-03-02 19:02:00,
2013-03-02 14:07:00,50.7,25.5,29.48,North,-999,-999.0,-999.0,37,-99.99,,,-99.99,meteohub,2013-03-02 19:07:00,
2013-03-02 14:12:00,49.3,24.1,29.48,North,-999,-999.0,-999.0,37,-99.99,,,-99.99,meteohub,2013-03-02 19:12:00,
2013-03-02 14:17:00,49.3,24.1,29.48,North,-999,-999.0,-999.0,37,-99.99,,,-99.99,meteohub,2013-03-02 19:17:00,
2013-03-02 14:22:00,49.1,24.1,29.48,North,-999,-999.0,-999.0,37,-99.99,,,-99.99,meteohub,2013-03-02 19:22:00,
2013-03-02 14:27:00,49.1,24.1,29.48,North,-999,-999.0,-999.0,37,-99.99,,,-99.99,meteohub,2013-03-02 19:27:00,
2013-03-02 14:32:00,48.7,23.7,29.48,North,-999,-999.0,-999.0,37,-99.99,,,-99.99,meteohub,2013-03-02 19:32:00,
2013-03-02 14:37:00,48.9,23.9,29.48,North,-999,-999.0,-999.0,37,-99.99,,,-99.99,meteohub,2013-03-02 19:37:00,
2013-03-02 14:42:00,48.9,23.9,29.48,North,-999,-999.0,-999.0,37,-99.99,,,-99.99,meteohub,2013-03-02 19:42:00,
2013-03-02 14:47:00,49.3,24.8,29.48,North,-999,-999.0,-999.0,38,-99.99,,,-99.99,meteohub,2013-03-02 19:47:00,
2013-03-02 14:52:00,49.3,24.1,29.48,North,-999,-999.0,-999.0,37,-99.99,,,-99.99,meteohub,2013-03-02 19:52:00,
2013-03-02 14:57:00,48.9,23.9,29.48,North,-999,-999.0,-999.0,37,-99.99,,,-99.99,meteohub,2013-03-02 19:57:00,
2013-03-02 15:02:00,48.9,23.9,29.48,North,-999,-999.0,-999.0,37,-99.99,,,-99.99,meteohub,2013-03-02 20:02:00,
2013-03-02 15:07:00,48.7,23.7,29.48,North,-999,-999.0,-999.0,37,-99.99,,,-99.99,meteohub,2013-03-02 20:07:00,
2013-03-02 15:12:00,48.6,23.5,29.48,North,-999,-999.0,-999.0,37,-99.99,,,-99.99,meteohub,2013-03-02 20:12:00,
2013-03-02 15:17:00,48.6,23.5,29.48,North,-999,-999.0,-999.0,37,-99.99,,,-99.99,meteohub,2013-03-02 20:17:00,
2013-03-02 15:22:00,48.4,23.4,29.48,North,-999,-999.0,-999.0,37,-99.99,,,-99.99,meteohub,2013-03-02 20:22:00,
2013-03-02 15:27:00,48.4,23.4,29.48,North,-999,-999.0,-999.0,37,-99.99,,,-99.99,meteohub,2013-03-02 20:27:00,
2013-03-02 15:32:00,48.2,23.2,29.48,North,-999,-999.0,-999.0,37,-99.99,,,-99.99,meteohub,2013-03-02 20:32:00,
2013-03-02 15:37:00,48.6,23.5,29.48,North,-999,-999.0,-999.0,37,-99.99,,,-99.99,meteohub,2013-03-02 20:37:00,
2013-03-02 15:42:00,48.2,23.2,29.48,North,-999,-999.0,-999.0,37,-99.99,,,-99.99,meteohub,2013-03-02 20:42:00,
2013-03-02 15:47:00,48.0,23.7,29.48,North,-999,-999.0,-999.0,38,-99.99,,,-99.99,meteohub,2013-03-02 20:47:00,
2013-03-02 15:52:00,48.4,23.4,29.48,North,-999,-999.0,-999.0,37,-99.99,,,-99.99,meteohub,2013-03-02 20:52:00,
2013-03-02 15:57:00,48.2,23.2,29.48,North,-999,-999.0,-999.0,37,-99.99,,,-99.99,meteohub,2013-03-02 20:57:00,
2013-03-02 16:02:00,48.0,23.7,29.48,North,-999,-999.0,-999.0,38,-99.99,,,-99.99,meteohub,2013-03-02 21:02:00,
2013-03-02 16:07:00,47.7,23.4,29.48,North,-999,-999.0,-999.0,38,-99.99,,,-99.99,meteohub,2013-03-02 21:07:00,
2013-03-02 16:12:00,47.8,23.5,29.48,North,-999,-999.0,-999.0,38,-99.99,,,-99.99,meteohub,2013-03-02 21:12:00,
2013-03-02 16:17:00,47.7,22.6,29.48,North,-999,-999.0,-999.0,37,-99.99,,,-99.99,meteohub,2013-03-02 21:17:00,
2013-03-02 16:23:00,47.3,23.0,29.48,North,-999,-999.0,-999.0,38,-99.99,,,-99.99,meteohub,2013-03-02 21:23:00,
2013-03-02 16:28:00,47.3,23.0,29.48,North,-999,-999.0,-999.0,38,-99.99,,,-99.99,meteohub,2013-03-02 21:28:00,
2013-03-02 16:33:00,47.3,23.0,29.48,North,-999,-999.0,-999.0,38,-99.99,,,-99.99,meteohub,2013-03-02 21:33:00,
2013-03-02 16:38:00,47.3,23.0,29.48,North,-999,-999.0,-999.0,38,-99.99,,,-99.99,meteohub,2013-03-02 21:38:00,
2013-03-02 16:43:00,47.1,22.8,29.48,North,-999,-999.0,-999.0,38,-99.99,,,-99.99,meteohub,2013-03-02 21:43:00,
2013-03-02 16:48:00,46.8,22.5,29.48,North,-999,-999.0,-999.0,38,-99.99,,,-99.99,meteohub,2013-03-02 21:48:00,
2013-03-02 16:53:00,46.4,22.3,29.48,North,-999,-999.0,-999.0,38,-99.99,,,-99.99,meteohub,2013-03-02 21:53:00,
2013-03-02 16:58:00,46.2,22.6,29.48,North,-999,-999.0,-999.0,39,-99.99,,,-99.99,meteohub,2013-03-02 21:58:00,
2013-03-02 17:04:00,46.0,22.5,29.48,North,-999,-999.0,-999.0,39,-99.99,,,-99.99,meteohub,2013-03-02 22:04:00,
2013-03-02 17:09:00,45.9,22.3,29.48,North,-999,-999.0,-999.0,39,-99.99,,,-99.99,meteohub,2013-03-02 22:09:00,
2013-03-02 17:14:00,45.7,22.3,29.48,North,-999,-999.0,-999.0,39,-99.99,,,-99.99,meteohub,2013-03-02 22:14:00,
2013-03-02 17:19:00,45.5,22.6,29.48,North,-999,-999.0,-999.0,40,-99.99,,,-99.99,meteohub,2013-03-02 22:19:00,
2013-03-02 17:24:00,45.5,22.6,29.48,North,-999,-999.0,-999.0,40,-99.99,,,-99.99,meteohub,2013-03-02 22:24:00,
2013-03-02 17:29:00,45.3,22.5,29.48,North,-999,-999.0,-999.0,40,-99.99,,,-99.99,meteohub,2013-03-02 22:29:00,
2013-03-02 17:35:00,45.3,22.5,29.51,North,-999,-999.0,-999.0,40,-99.99,,,-99.99,meteohub,2013-03-02 22:35:00,
2013-03-02 17:40:00,45.1,22.3,29.51,North,-999,-999.0,-999.0,40,-99.99,,,-99.99,meteohub,2013-03-02 22:40:00,
2013-03-02 17:45:00,45.1,22.3,29.51,North,-999,-999.0,-999.0,40,-99.99,,,-99.99,meteohub,2013-03-02 22:45:00,
2013-03-02 17:50:00,45.0,22.1,29.51,North,-999,-999.0,-999.0,40,-99.99,,,-99.99,meteohub,2013-03-02 22:50:00,
2013-03-02 17:55:00,44.8,21.9,29.51,North,-999,-999.0,-999.0,40,-99.99,,,-99.99,meteohub,2013-03-02 22:55:00,
2013-03-02 18:00:00,44.8,21.9,29.51,North,-999,-999.0,-999.0,40,-99.99,,,-99.99,meteohub,2013-03-02 23:00:00,
2013-03-02 18:05:00,44.6,22.5,29.51,North,-999,-999.0,-999.0,41,-99.99,,,-99.99,meteohub,2013-03-02 23:05:00,
2013-03-02 18:10:00,44.4,22.3,29.51,North,-999,-999.0,-999.0,41,-99.99,,,-99.99,meteohub,2013-03-02 23:10:00,
2013-03-02 18:16:00,44.2,22.1,29.51,North,-999,-999.0,-999.0,41,-99.99,,,-99.99,meteohub,2013-03-02 23:16:00,
2013-03-02 18:21:00,44.1,22.5,29.51,North,-999,-999.0,-999.0,42,-99.99,,,-99.99,meteohub,2013-03-02 23:21:00,
2013-03-02 18:26:00,44.1,22.5,29.51,North,-999,-999.0,-999.0,42,-99.99,,,-99.99,meteohub,2013-03-02 23:26:00,
2013-03-02 18:31:00,43.9,22.3,29.51,North,-999,-999.0,-999.0,42,-99.99,,,-99.99,meteohub,2013-03-02 23:31:00,
2013-03-02 18:36:00,43.7,22.1,29.51,North,-999,-999.0,-999.0,42,-99.99,,,-99.99,meteohub,2013-03-02 23:36:00,
2013-03-02 18:41:00,43.5,21.9,29.51,North,-999,-999.0,-999.0,42,-99.99,,,-99.99,meteohub,2013-03-02 23:41:00,
2013-03-02 18:46:00,43.5,21.9,29.51,North,-999,-999.0,-999.0,42,-99.99,,,-99.99,meteohub,2013-03-02 23:46:00,
2013-03-02 18:51:00,43.3,21.9,29.51,North,-999,-999.0,-999.0,42,-99.99,,,-99.99,meteohub,2013-03-02 23:51:00,
2013-03-02 18:57:00,43.2,22.3,29.51,North,-999,-999.0,-999.0,43,-99.99,,,-99.99,meteohub,2013-03-02 23:57:00,
2013-03-02 19:02:00,43.0,22.1,29.51,North,-999,-999.0,-999.0,43,-99.99,,,-99.99,meteohub,2013-03-03 00:02:00,
2013-03-02 19:07:00,43.0,22.1,29.54,North,-999,-999.0,-999.0,43,-99.99,,,-99.99,meteohub,2013-03-03 00:07:00,
2013-03-02 19:12:00,42.8,22.5,29.54,North,-999,-999.0,-999.0,44,-99.99,,,-99.99,meteohub,2013-03-03 00:12:00,
2013-03-02 19:17:00,42.6,22.3,29.54,North,-999,-999.0,-999.0,44,-99.99,,,-99.99,meteohub,2013-03-03 00:17:00,
2013-03-02 19:22:00,42.4,22.1,29.51,North,-999,-999.0,-999.0,44,-99.99,,,-99.99,meteohub,2013-03-03 00:22:00,
2013-03-02 19:27:00,42.4,22.6,29.51,North,-999,-999.0,-999.0,45,-99.99,,,-99.99,meteohub,2013-03-03 00:27:00,
2013-03-02 19:32:00,42.3,21.9,29.51,North,-999,-999.0,-999.0,44,-99.99,,,-99.99,meteohub,2013-03-03 00:32:00,
2013-03-02 19:37:00,42.3,21.9,29.54,North,-999,-999.0,-999.0,44,-99.99,,,-99.99,meteohub,2013-03-03 00:37:00,
2013-03-02 19:42:00,41.9,21.6,29.54,North,-999,-999.0,-999.0,44,-99.99,,,-99.99,meteohub,2013-03-03 00:42:00,
2013-03-02 19:47:00,41.7,21.4,29.54,North,-999,-999.0,-999.0,44,-99.99,,,-99.99,meteohub,2013-03-03 00:47:00,
2013-03-02 19:52:00,41.4,21.2,29.54,North,-999,-999.0,-999.0,44,-99.99,,,-99.99,meteohub,2013-03-03 00:52:00,
2013-03-02 19:57:00,41.2,21.6,29.54,North,-999,-999.0,-999.0,45,-99.99,,,-99.99,meteohub,2013-03-03 00:57:00,
2013-03-02 20:02:00,41.0,21.4,29.54,North,-999,-999.0,-999.0,45,-99.99,,,-99.99,meteohub,2013-03-03 01:02:00,
2013-03-02 20:07:00,41.0,21.4,29.54,North,-999,-999.0,-999.0,45,-99.99,,,-99.99,meteohub,2013-03-03 01:07:00,
2013-03-02 20:12:00,40.8,21.2,29.54,North,-999,-999.0,-999.0,45,-99.99,,,-99.99,meteohub,2013-03-03 01:12:00,
2013-03-02 20:17:00,40.5,20.8,29.54,North,-999,-999.0,-999.0,45,-99.99,,,-99.99,meteohub,2013-03-03 01:17:00,
2013-03-02 20:22:00,40.5,20.8,29.54,North,-999,-999.0,-999.0,45,-99.99,,,-99.99,meteohub,2013-03-03 01:22:00,
2013-03-02 20:27:00,40.1,20.5,29.54,North,-999,-999.0,-999.0,45,-99.99,,,-99.99,meteohub,2013-03-03 01:27:00,
2013-03-02 20:32:00,39.9,19.8,29.54,North,-999,-999.0,-999.0,44,-99.99,,,-99.99,meteohub,2013-03-03 01:32:00,
2013-03-02 20:37:00,39.9,19.8,29.54,North,-999,-999.0,-999.0,44,-99.99,,,-99.99,meteohub,2013-03-03 01:37:00,
2013-03-02 20:42:00,39.7,19.0,29.54,North,-999,-999.0,-999.0,43,-99.99,,,-99.99,meteohub,2013-03-03 01:42:00,
2013-03-02 20:47:00,39.4,18.9,29.54,North,-999,-999.0,-999.0,43,-99.99,,,-99.99,meteohub,2013-03-03 01:47:00,
2013-03-02 20:52:00,39.2,18.7,29.57,North,-999,-999.0,-999.0,43,-99.99,,,-99.99,meteohub,2013-03-03 01:52:00,
2013-03-02 20:57:00,39.2,18.7,29.57,North,-999,-999.0,-999.0,43,-99.99,,,-99.99,meteohub,2013-03-03 01:57:00,
2013-03-02 21:02:00,38.8,18.3,29.57,North,-999,-999.0,-999.0,43,-99.99,,,-99.99,meteohub,2013-03-03 02:02:00,
2013-03-02 21:08:00,38.7,17.6,29.57,North,-999,-999.0,-999.0,42,-99.99,,,-99.99,meteohub,2013-03-03 02:08:00,
2013-03-02 21:13:00,38.5,17.4,29.57,North,-999,-999.0,-999.0,42,-99.99,,,-99.99,meteohub,2013-03-03 02:13:00,
2013-03-02 21:18:00,38.5,18.0,29.57,North,-999,-999.0,-999.0,43,-99.99,,,-99.99,meteohub,2013-03-03 02:18:00,
2013-03-02 21:23:00,38.1,17.6,29.57,North,-999,-999.0,-999.0,43,-99.99,,,-99.99,meteohub,2013-03-03 02:23:00,
2013-03-02 21:28:00,37.9,17.4,29.57,North,-999,-999.0,-999.0,43,-99.99,,,-99.99,meteohub,2013-03-03 02:28:00,
2013-03-02 21:33:00,37.8,17.4,29.57,North,-999,-999.0,-999.0,43,-99.99,,,-99.99,meteohub,2013-03-03 02:33:00,
2013-03-02 21:38:00,37.6,17.2,29.57,North,-999,-999.0,-999.0,43,-99.99,,,-99.99,meteohub,2013-03-03 02:38:00,
2013-03-02 21:43:00,37.4,17.1,29.57,North,-999,-999.0,-999.0,43,-99.99,,,-99.99,meteohub,2013-03-03 02:43:00,
2013-03-02 21:48:00,37.2,17.4,29.57,North,-999,-999.0,-999.0,44,-99.99,,,-99.99,meteohub,2013-03-03 02:48:00,
2013-03-02 21:54:00,37.0,17.2,29.57,North,-999,-999.0,-999.0,44,-99.99,,,-99.99,meteohub,2013-03-03 02:54:00,
2013-03-02 21:59:00,36.7,16.9,29.57,North,-999,-999.0,-999.0,44,-99.99,,,-99.99,meteohub,2013-03-03 02:59:00,
2013-03-02 22:04:00,36.5,16.7,29.57,North,-999,-999.0,-999.0,44,-99.99,,,-99.99,meteohub,2013-03-03 03:04:00,
2013-03-02 22:09:00,36.3,16.5,29.57,North,-999,-999.0,-999.0,44,-99.99,,,-99.99,meteohub,2013-03-03 03:09:00,
2013-03-02 22:14:00,36.1,16.3,29.57,North,-999,-999.0,-999.0,44,-99.99,,,-99.99,meteohub,2013-03-03 03:14:00,
2013-03-02 22:19:00,36.0,16.2,29.57,North,-999,-999.0,-999.0,44,-99.99,,,-99.99,meteohub,2013-03-03 03:19:00,
2013-03-02 22:24:00,36.0,16.2,29.57,North,-999,-999.0,-999.0,44,-99.99,,,-99.99,meteohub,2013-03-03 03:24:00,
2013-03-02 22:29:00,35.6,16.0,29.57,North,-999,-999.0,-999.0,44,-99.99,,,-99.99,meteohub,2013-03-03 03:29:00,
2013-03-02 22:34:00,35.6,16.3,29.57,North,-999,-999.0,-999.0,45,-99.99,,,-99.99,meteohub,2013-03-03 03:34:00,
2013-03-02 22:40:00,35.4,16.2,29.57,North,-999,-999.0,-999.0,45,-99.99,,,-99.99,meteohub,2013-03-03 03:40:00,
2013-03-02 22:45:00,35.2,16.2,29.57,North,-999,-999.0,-999.0,45,-99.99,,,-99.99,meteohub,2013-03-03 03:45:00,
2013-03-02 22:50:00,35.1,16.3,29.57,North,-999,-999.0,-999.0,46,-99.99,,,-99.99,meteohub,2013-03-03 03:50:00,
2013-03-02 22:55:00,34.9,16.3,29.57,North,-999,-999.0,-999.0,46,-99.99,,,-99.99,meteohub,2013-03-03 03:55:00,
2013-03-02 23:00:00,34.9,16.7,29.57,North,-999,-999.0,-999.0,47,-99.99,,,-99.99,meteohub,2013-03-03 04:00:00,
2013-03-02 23:05:00,34.7,16.2,29.57,North,-999,-999.0,-999.0,46,-99.99,,,-99.99,meteohub,2013-03-03 04:05:00,
2013-03-02 23:10:00,34.5,16.3,29.57,North,-999,-999.0,-999.0,47,-99.99,,,-99.99,meteohub,2013-03-03 04:10:00,
2013-03-02 23:15:00,34.3,16.3,29.57,North,-999,-999.0,-999.0,47,-99.99,,,-99.99,meteohub,2013-03-03 04:15:00,
2013-03-02 23:21:00,34.3,16.3,29.57,North,-999,-999.0,-999.0,47,-99.99,,,-99.99,meteohub,2013-03-03 04:21:00,
2013-03-02 23:26:00,34.2,16.2,29.57,North,-999,-999.0,-999.0,47,-99.99,,,-99.99,meteohub,2013-03-03 04:26:00,
2013-03-02 23:31:00,34.2,16.2,29.57,North,-999,-999.0,-999.0,47,-99.99,,,-99.99,meteohub,2013-03-03 04:31:00,
2013-03-02 23:36:00,34.0,16.0,29.57,North,-999,-999.0,-999.0,47,-99.99,,,-99.99,meteohub,2013-03-03 04:36:00,
2013-03-02 23:41:00,34.0,16.3,29.57,North,-999,-999.0,-999.0,48,-99.99,,,-99.99,meteohub,2013-03-03 04:41:00,
2013-03-02 23:46:00,33.8,16.2,29.57,North,-999,-999.0,-999.0,48,-99.99,,,-99.99,meteohub,2013-03-03 04:46:00,
2013-03-02 23:51:00,33.8,16.2,29.57,North,-999,-999.0,-999.0,48,-99.99,,,-99.99,meteohub,2013-03-03 04:51:00,
2013-03-02 23:56:00,33.6,16.5,29.57,North,-999,-999.0,-999.0,49,-99.99,,,-99.99,meteohub,2013-03-03 04:56:00,